Terminal Aerodrome Forecast
Issued by NWS St Louis, MO

Home | Current Version | Previous Version | Text Only | Print | Product List | Glossary On
Versions: 1 2 3 4 5 6 7 8 9 10 11 12 13 14 15 16 17 18 19 20 21 22 23 24 25 26 27 28
000
FTUS43 KLSX 151100
TAFSTL
TAF
KSTL 151120Z 1512/1618 15011KT 4SM -RA OVC012
      TEMPO 1512/1514 2SM RA OVC007
     FM151500 15015KT P6SM BKN015
     FM151800 17015KT P6SM VCSH BKN025
     FM160200 25015KT P6SM OVC025
     FM160900 29014G22KT P6SM OVC015=

USA.gov is the U.S. government's official web portal to all federal, state and local government web resources and services.